Location: Stara Lesna
(49.1528°N, 20.2911°E)
Time: 10:13:26
(UTC+02:00)

SeaSat 1 - Pass Details

Date: 13 July 2020
Orbit: 744 x 747 km, 108.0° (Epoch: 05 August)

Event Time Altitude Azimuth Distance (km) Brightness Sun altitude
Rises 03:16:44 0° 26° (NNE) 3,203 7.7 -11.4°
Reaches altitude 10° 03:19:01 10° 23° (NNE) 2,275 6.4 -11.2°
Maximum altitude 03:23:53 60° 305° (NW) 860 2.8 -10.7°
Enters shadow 03:28:11 13° 228° (SW) 2,048 4.1 -10.3°
